Volver al catálogo

FENGYUN 1C DEB

ActivoSSO
NORAD 31056·DEBRIS·🇨🇳 China

Lanzado May 10, 1999 desde Taiyuan Satellite Launch Center

Loading…

Próximos Pases (próximas 24 horas)

TLE

ActualizadoSource: Space-Track

Época: Sep 14, 2026, 10:26 UTC

1 31056U 99025BFA 26257.43522190  .00000358  00000-0  20817-3 0  9995
2 31056  98.6958 237.3838 0024473 273.8493 238.6543 14.14631044  7110

Sigue FENGYUN 1C DEB en tiempo real con AllMySat

Download on the App Store